Total_Precipitation_Accumulation
0.11 0.15 0.35 0.34 0.30 0.27 0.23 0.20 0.21 0.21 0.22 0.24 0.24 0.27 0.27 0.24 0.22 0.22 0.21 0.24 0.32 0.42 0.49 0.53 0.50 0.46 0.39 0.31 0.21 0.11 0.09 0.09 0.09 0.08 0.08 0.11 0.15 0.15 0.12 0.10 0.11 0.12 0.16
0.09 0.15 0.34 0.36 0.35 0.33 0.31 0.25 0.20 0.20 0.21 0.25 0.29 0.30 0.29 0.27 0.25 0.20 0.22 0.28 0.34 0.38 0.43 0.47 0.39 0.31 0.27 0.20 0.11 0.07 0.06 0.05 0.04 0.03 0.02 0.04 0.08 0.11 0.11 0.09 0.10 0.13 0.16
0.11 0.19 0.32 0.36 0.38 0.38 0.34 0.26 0.18 0.19 0.23 0.28 0.32 0.31 0.31 0.29 0.23 0.24 0.27 0.30 0.33 0.37 0.36 0.32 0.22 0.16 0.12 0.08 0.06 0.05 0.05 0.04 0.03 0.03 0.04 0.06 0.07 0.11 0.11 0.09 0.12 0.15 0.17
0.16 0.24 0.31 0.39 0.41 0.39 0.36 0.30 0.24 0.22 0.26 0.32 0.35 0.35 0.35 0.32 0.24 0.26 0.31 0.29 0.31 0.31 0.23 0.18 0.15 0.13 0.08 0.06 0.05 0.05 0.05 0.04 0.03 0.04 0.07 0.07 0.08 0.16 0.16 0.14 0.16 0.17 0.17
0.25 0.28 0.37 0.45 0.48 0.46 0.40 0.36 0.30 0.28 0.33 0.38 0.39 0.40 0.38 0.37 0.33 0.33 0.30 0.26 0.24 0.22 0.17 0.14 0.11 0.09 0.07 0.06 0.06 0.05 0.06 0.04 0.03 0.05 0.06 0.07 0.10 0.19 0.20 0.17 0.16 0.15 0.16
0.36 0.40 0.50 0.57 0.60 0.55 0.48 0.43 0.40 0.36 0.37 0.40 0.43 0.44 0.43 0.44 0.43 0.40 0.31 0.23 0.18 0.14 0.12 0.12 0.08 0.07 0.07 0.06 0.05 0.05 0.05 0.05 0.04 0.04 0.04 0.05 0.10 0.21 0.22 0.17 0.17 0.19 0.21
0.44 0.49 0.61 0.71 0.72 0.63 0.56 0.51 0.50 0.51 0.51 0.49 0.46 0.49 0.54 0.51 0.48 0.44 0.32 0.20 0.14 0.11 0.10 0.10 0.09 0.07 0.07 0.07 0.07 0.06 0.05 0.03 0.03 0.03 0.04 0.05 0.11 0.24 0.24 0.20 0.21 0.23 0.23
0.50 0.54 0.65 0.76 0.75 0.69 0.66 0.59 0.57 0.62 0.60 0.58 0.55 0.59 0.65 0.60 0.48 0.41 0.31 0.21 0.16 0.13 0.11 0.11 0.11 0.10 0.10 0.10 0.09 0.07 0.05 0.03 0.03 0.04 0.05 0.07 0.11 0.20 0.20 0.18 0.19 0.19 0.19
0.68 0.74 0.78 0.79 0.74 0.69 0.62 0.59 0.57 0.63 0.65 0.60 0.59 0.61 0.62 0.60 0.48 0.40 0.28 0.22 0.18 0.17 0.16 0.13 0.13 0.11 0.11 0.11 0.10 0.08 0.05 0.03 0.03 0.03 0.03 0.05 0.10 0.16 0.16 0.16 0.16 0.15 0.16
0.98 0.94 0.90 0.92 0.88 0.76 0.67 0.65 0.61 0.59 0.58 0.57 0.55 0.48 0.44 0.42 0.39 0.38 0.25 0.21 0.21 0.19 0.17 0.14 0.13 0.13 0.11 0.08 0.07 0.06 0.04 0.04 0.03 0.02 0.03 0.04 0.06 0.11 0.13 0.14 0.14 0.15 0.17
1.29 1.16 1.07 1.07 1.05 0.96 0.86 0.76 0.73 0.68 0.61 0.57 0.51 0.42 0.42 0.46 0.42 0.33 0.19 0.16 0.18 0.19 0.16 0.14 0.13 0.12 0.09 0.05 0.04 0.04 0.03 0.03 0.03 0.03 0.03 0.03 0.06 0.09 0.14 0.17 0.17 0.17 0.18
1.47 1.31 1.21 1.15 1.14 1.12 0.95 0.82 0.82 0.77 0.68 0.59 0.52 0.48 0.45 0.47 0.45 0.35 0.27 0.19 0.19 0.18 0.16 0.16 0.15 0.13 0.09 0.06 0.05 0.04 0.04 0.04 0.05 0.04 0.03 0.02 0.05 0.09 0.15 0.18 0.18 0.18 0.18
1.69 1.59 1.38 1.27 1.21 1.16 1.09 0.90 0.83 0.76 0.73 0.67 0.59 0.56 0.51 0.53 0.51 0.44 0.40 0.30 0.26 0.21 0.19 0.18 0.17 0.12 0.11 0.11 0.09 0.06 0.05 0.05 0.05 0.03 0.03 0.03 0.05 0.09 0.15 0.18 0.18 0.18 0.19
1.68 1.74 1.52 1.37 1.28 1.22 1.10 1.02 0.89 0.79 0.72 0.66 0.60 0.53 0.55 0.59 0.53 0.45 0.40 0.33 0.29 0.23 0.21 0.20 0.19 0.14 0.12 0.11 0.09 0.07 0.06 0.06 0.05 0.05 0.04 0.04 0.04 0.07 0.13 0.18 0.21 0.22 0.23
1.58 1.73 1.70 1.50 1.39 1.24 1.15 1.10 1.00 0.82 0.70 0.69 0.68 0.61 0.53 0.51 0.49 0.46 0.38 0.37 0.33 0.29 0.27 0.25 0.21 0.17 0.15 0.13 0.10 0.07 0.06 0.05 0.05 0.05 0.05 0.03 0.03 0.05 0.09 0.15 0.23 0.29 0.34
1.48 1.59 1.70 1.66 1.58 1.38 1.16 1.08 1.03 0.90 0.77 0.74 0.72 0.65 0.63 0.57 0.51 0.46 0.40 0.36 0.33 0.29 0.26 0.26 0.24 0.21 0.19 0.16 0.12 0.09 0.06 0.06 0.05 0.05 0.05 0.05 0.04 0.04 0.06 0.10 0.20 0.30 0.40
1.51 1.49 1.60 1.66 1.73 1.57 1.33 1.15 1.08 0.96 0.86 0.78 0.73 0.78 0.75 0.68 0.59 0.53 0.46 0.38 0.34 0.35 0.32 0.29 0.29 0.25 0.19 0.16 0.13 0.11 0.09 0.08 0.07 0.07 0.07 0.06 0.06 0.06 0.06 0.10 0.18 0.28 0.40
1.67 1.53 1.56 1.58 1.73 1.74 1.52 1.31 1.17 1.05 0.93 0.83 0.75 0.79 0.87 0.81 0.74 0.69 0.65 0.54 0.48 0.47 0.47 0.40 0.32 0.31 0.23 0.18 0.15 0.13 0.12 0.10 0.08 0.07 0.08 0.07 0.06 0.07 0.07 0.09 0.13 0.21 0.31
1.71 1.69 1.64 1.54 1.60 1.74 1.75 1.60 1.41 1.21 1.02 0.92 0.80 0.75 0.83 0.85 0.81 0.76 0.70 0.72 0.70 0.62 0.53 0.49 0.39 0.37 0.33 0.26 0.23 0.20 0.16 0.14 0.11 0.10 0.09 0.09 0.08 0.08 0.08 0.09 0.11 0.13 0.19
1.73 1.70 1.73 1.66 1.64 1.75 1.87 1.87 1.70 1.48 1.25 1.09 0.95 0.83 0.82 0.86 0.88 0.87 0.81 0.82 0.82 0.79 0.70 0.61 0.52 0.45 0.41 0.39 0.34 0.26 0.21 0.17 0.14 0.12 0.11 0.11 0.10 0.10 0.09 0.10 0.11 0.11 0.13
1.70 1.69 1.64 1.70 1.69 1.75 1.86 1.85 1.72 1.52 1.46 1.33 1.18 1.09 0.99 0.94 0.96 1.01 0.97 0.98 1.01 0.97 0.91 0.88 0.81 0.69 0.56 0.53 0.49 0.35 0.23 0.18 0.15 0.13 0.12 0.13 0.13 0.14 0.14 0.14 0.15 0.16 0.17
1.48 1.66 1.63 1.68 1.72 1.65 1.68 1.89 1.97 1.87 1.69 1.55 1.39 1.25 1.16 1.05 1.01 1.04 1.08 1.06 1.03 1.06 1.05 1.02 0.95 0.84 0.74 0.69 0.62 0.56 0.41 0.26 0.18 0.15 0.14 0.14 0.14 0.17 0.17 0.18 0.19 0.20 0.22
1.38 1.60 1.66 1.69 1.78 1.71 1.77 2.10 2.29 2.27 1.98 1.74 1.55 1.36 1.23 1.18 1.14 1.07 1.02 1.03 1.02 1.03 1.05 1.07 1.09 1.10 0.99 0.89 0.81 0.82 0.65 0.44 0.31 0.22 0.19 0.18 0.19 0.20 0.21 0.23 0.25 0.26 0.27
1.31 1.50 1.58 1.72 1.81 1.83 1.89 2.06 2.08 1.97 1.78 1.58 1.56 1.51 1.43 1.34 1.24 1.19 1.14 1.08 1.04 1.02 1.00 1.07 1.13 1.17 1.19 1.09 0.98 0.91 0.83 0.68 0.61 0.44 0.30 0.28 0.30 0.29 0.28 0.27 0.28 0.29 0.30
1.21 1.42 1.47 1.57 1.67 1.75 1.75 1.87 2.06 1.92 1.73 1.62 1.59 1.54 1.46 1.44 1.36 1.28 1.22 1.21 1.17 1.13 1.10 1.12 1.17 1.20 1.22 1.20 1.13 1.05 1.01 0.87 0.75 0.70 0.53 0.41 0.40 0.38 0.37 0.35 0.34 0.34 0.34
1.02 1.29 1.40 1.51 1.59 1.67 1.65 1.69 1.88 1.83 1.65 1.48 1.42 1.42 1.35 1.32 1.27 1.21 1.18 1.16 1.15 1.12 1.10 1.08 1.11 1.14 1.14 1.13 1.11 1.06 1.05 0.99 0.86 0.85 0.77 0.58 0.54 0.49 0.50 0.50 0.48 0.46 0.43